Regional Weather Roundup
Issued by NWS Jackson, KY

Home | Current Version | Previous Version | Graphics & Text | Print | Product List | Glossary On
Versions: 1 2 3 4 5 6 7 8 9 10 11 12 13 14 15 16 17 18 19 20 21 22 23 24 25 26 27 28 29 30 31 32 33 34 35 36 37 38 39 40 41 42 43 44 45 46 47 48 49 50
174
ASUS43 KJKL 241010
RWRJKL

EAST KENTUCKY HOURLY WEATHER ROUNDUP
NATIONAL WEATHER SERVICE JACKSON KY
500 AM EST TUE JAN 24 2017

NOTE: "FAIR" INDICATES FEW OR NO CLOUDS BELOW 12,000 FEET WITH
NO SIGNIFICANT WEATHER AND/OR OBSTRUCTIONS TO VISIBILITY.

* THESE REPORTS ARE NOT UNDER NWS QUALITY CONTROL AND MAY NOT
  REPORT WEATHER SUCH AS PRECIPITATION AND FOG.

KYZ079-080-083-085-087-088-110-112-115-119-120-241100
...EASTERN KENTUCKY...

CITY           SKY/WX    TMP DP  RH WIND       PRES   REMARKS
JACKSON        CLOUDY    41  39  93 VRB7      29.72R FOG
LONDON         CLOUDY    39  32  76 W7        29.77R HAZE    WCI  34
SOMERSET*      CLOUDY    37  37 100 W8        29.82R FOG     WCI  31
MONTICELLO*    CLOUDY    39  38  96 W10       29.84R WCI  32
WILLIAMSBURG*  CLOUDY    37  37 100 W7        29.78R WCI  32
MIDDLESBORO*   CLOUDY    42  38  89 CALM      29.76R
HARLAN APT*    CLOUDY    41  37  87 SW7       29.73S
PIKE CO APT*   LGT RAIN  41  41 100 W13G18    29.69R
BIG SANDY APT* DRIZZLE   43  43 100 NW7       29.70R
MOREHEAD APT*  CLOUDY    41  39  93 W8        29.76R FOG
ASHLAND*       CLOUDY    45  41  87 N9        29.68S
$$

KYZ035-036-041-042-044-050-067-078-099-241100
...CENTRAL KENTUCKY...

CITY           SKY/WX    TMP DP  RH WIND       PRES   REMARKS
MT STERLING*   CLOUDY   N/A N/A N/A NW9       29.77R
FLEMING/MASON* CLOUDY    40  40  99 NW8       29.75R FOG
DANVILLE*      CLOUDY    37  37 100 NW9       29.80R FOG     WCI  31
LEXINGTON      CLOUDY    40  38  93 NW8       29.78R FOG     WCI  34
FRANKFORT      CLOUDY    41  37  86 W8        29.78R FOG
LOUISVILLE     DRIZZLE   40  36  86 W13       29.83R FOG     WCI  32
LEBANON*       CLOUDY    39  37  93 W7        29.82R FOG     WCI  34
GLASGOW*       CLOUDY    39  35  85 NW7       29.86R WCI  34
BOWLING GREEN  CLOUDY    42  35  76 W9        29.87R
$$

KYZ091>093-OHZ055-061-077-WVZ005-015-034-035-042-241100
...SOUTHERN OHIO/WEST VIRGINIA...

CITY           SKY/WX    TMP DP  RH WIND       PRES   REMARKS
COVINGTON      DRIZZLE   40  39  97 NW9       29.76R FOG     WCI  34
COLUMBUS       CLOUDY    41  41 100 NW10      29.69R
DAYTON         CLOUDY    40  39  97 NW15      29.73R FOG     WCI  32
WILMINGTON     CLOUDY    41  41 100 NW8       29.70S FOG
HUNTINGTON     CLOUDY    43  40  89 NW9       29.68S
CHARLESTON     CLOUDY    40  37  89 W3        29.67R
BECKLEY        LGT SNOW  35  33  92 NW9       29.61R FOG     WCI  28
BLUEFIELD      CLOUDY    37  35  92 NW14G23   29.59R WCI  28
LOGAN CO APT*  LGT RAIN  39  39 100 N6        29.66R VSB 1   WCI  35
$$

VAZ002-007-008-TNZ017-027-036-066-071-241100
...SOUTHWEST VIRGINIA/EAST TENNESSEE...

CITY           SKY/WX    TMP DP  RH WIND       PRES   REMARKS
WISE*          CLOUDY    39  39 100 W9G18     29.67R WCI  33
JONESVILLE*    CLOUDY    43  39  87 W7        29.74R
ABINGDON*      CLOUDY    45  42  89 W7        29.66R FOG
BRISTOL        LGT RAIN  43  41  93 W14       29.69R FOG
MORRISTOWN*    CLOUDY    43  43 100 W10       29.73S
SEVIERVILLE*   CLOUDY    43  39  87 W7        29.76R
KNOXVILLE      CLOUDY    43  38  82 W9        29.76S
LAFOLLETTE*    CLOUDY    41  39  93 VRB6      29.79S FOG
OAK RIDGE      CLOUDY    43  38  82 VRB3      29.79R
CROSSVILLE     CLOUDY    36  35  96 NW8       29.80R FOG     WCI  30
NASHVILLE      CLOUDY    42  33  70 W6        29.87S
$$

...KEY TO REMARKS...
VSB - VISIBILITY IN MILES
WCI - WIND CHILL INDEX
HX  - HEAT INDEX

$$




USA.gov is the U.S. government's official web portal to all federal, state and local government web resources and services.